This is the latest recevied weather packets stored in our database for station/object N4CRH-13. If no packets are shown the sender has not sent any weather packets the latest 10 day(s).
| Time | Temp. | Humidity | Pressure | Rain* | Wind** | Luminosity | Snow |
|---|---|---|---|---|---|---|---|
| 1777908475 | 16.11° C | 30% | 1289.7 hPa | 0 mm | - | 416 W/m² | - |
| 1777908172 | 15.56° C | 29% | 1289.6 hPa | 0 mm | - | 397 W/m² | - |
| 1777907868 | 15.56° C | 29% | 1289.5 hPa | 0 mm | - | 386 W/m² | - |
| 1777907564 | 15.56° C | 28% | 1289.7 hPa | 0 mm | - | 363 W/m² | - |
| 1777907260 | 15° C | 29% | 1289.6 hPa | 0 mm | - | 360 W/m² | - |
| 1777906957 | 15° C | 30% | 1289.8 hPa | 0 mm | - | 333 W/m² | - |
| 1777906654 | 14.44° C | 32% | 1289.7 hPa | 0 mm | - | 333 W/m² | - |
| 1777906351 | 14.44° C | 33% | 1290 hPa | 0 mm | - | 287 W/m² | - |
| 1777906047 | 14.44° C | 31% | 1290 hPa | 0 mm | - | 242 W/m² | - |
| 1777905743 | 15° C | 29% | 1289.7 hPa | 0 mm | - | 199 W/m² | - |
| 1777905441 | 14.44° C | 32% | 1289.7 hPa | 0 mm | - | 331 W/m² | - |
| 1777905139 | 14.44° C | 30% | 1289.6 hPa | 0 mm | - | 293 W/m² | - |
| 1777904835 | 13.89° C | 32% | 1290 hPa | 0 mm | - | 218 W/m² | - |
| 1777904533 | 14.44° C | 31% | 1289.7 hPa | 0 mm | - | 135 W/m² | - |
| 1777904229 | 14.44° C | 32% | 1289.6 hPa | 0 mm | - | 180 W/m² | - |
| 1777903926 | 14.44° C | 32% | 1289.6 hPa | 0 mm | - | 162 W/m² | - |
| 1777903623 | 13.89° C | 30% | 1289.6 hPa | 0 mm | - | 186 W/m² | - |
| 1777903318 | 13.89° C | 32% | 1289.7 hPa | 0 mm | - | 150 W/m² | - |
| 1777903016 | 13.33° C | 32% | 1289.7 hPa | 0 mm | - | 131 W/m² | - |
| 1777902712 | 13.33° C | 32% | 1289.7 hPa | 0 mm | - | 122 W/m² | - |
| 1777902409 | 13.33° C | 32% | 1289.7 hPa | 0 mm | - | 120 W/m² | - |
| 1777902105 | 13.33° C | 32% | 1289.6 hPa | 0 mm | - | 136 W/m² | - |
| 1777901804 | 13.89° C | 33% | 1289.4 hPa | 0 mm | - | 120 W/m² | - |
| 1777901501 | 13.89° C | 30% | 1289.4 hPa | 0 mm | - | 120 W/m² | - |
| 1777901199 | 13.89° C | 31% | 1289.5 hPa | 0 mm | - | 119 W/m² | - |
* Rain latest hour (hover to see other rain measurements)
** Current wind speed in m/s (hover to see current wind gust speed)